When you browse on this site, cookies collect data to enhance your experience and personalize the content and advertising you see.
Visit our Privacy Policy to learn more. By continuing to use the site, you agree to this use of cookies and data.

Hourly Weather Druzhkovka

Today, 23 September, Wednesday

Time Temperature Precipitation Wind Pressure Humidity
00:00 +13°C° 0 mm 0 mps 754 mmHg 38%
01:00 +13°C° 0 mm 0 mps 754 mmHg 38%
02:00 +12°C° 0 mm 0 mps 754 mmHg 39%
03:00 +12°C° 0 mm 0 mps 754 mmHg 40%
04:00 +12°C° 0 mm 0 mps 754 mmHg 40%
05:00 +11°C° 0 mm 0 mps 754 mmHg 41%
06:00 +11°C° 0 mm 0 mps 754 mmHg 42%
07:00 +15°C° 0 mm 1 mps 754 mmHg 37%
08:00 +18°C° 0 mm 1 mps 754 mmHg 32%
09:00 +21°C° 0 mm 1 mps 754 mmHg 28%
10:00 +23°C° 0 mm 2 mps 754 mmHg 25%
11:00 +24°C° 0 mm 2 mps 754 mmHg 22%
12:00 +26°C° 0 mm 2 mps 753 mmHg 20%
13:00 +27°C° 0 mm 2 mps 753 mmHg 18%
14:00 +28°C° 0 mm 2 mps 753 mmHg 17%
15:00 +28°C° 0 mm 1 mps 752 mmHg 16%
16:00 +27°C° 0 mm 1 mps 752 mmHg 18%
17:00 +25°C° 0 mm 1 mps 752 mmHg 20%
18:00 +23°C° 0 mm 1 mps 751 mmHg 22%
19:00 +21°C° 0 mm 2 mps 751 mmHg 24%
20:00 +19°C° 0 mm 2 mps 751 mmHg 27%
21:00 +17°C° 0 mm 2 mps 752 mmHg 30%
22:00 +17°C° 0 mm 2 mps 751 mmHg 31%
23:00 +16°C° 0 mm 2 mps 751 mmHg 32%

Tomorrow, 24 September, Thursday

Time Temperature Precipitation Wind Pressure Humidity
00:00 +16°C° 0 mm 2 mps 751 mmHg 33%
01:00 +15°C° 0 mm 2 mps 751 mmHg 33%
02:00 +15°C° 0 mm 2 mps 752 mmHg 34%
03:00 +14°C° 0 mm 2 mps 752 mmHg 35%
04:00 +14°C° 0 mm 2 mps 752 mmHg 36%
05:00 +14°C° 0 mm 2 mps 752 mmHg 37%
06:00 +13°C° 0 mm 2 mps 751 mmHg 38%
07:00 +16°C° 0 mm 2 mps 752 mmHg 34%
08:00 +19°C° 0 mm 3 mps 752 mmHg 30%
09:00 +21°C° 0 mm 3 mps 752 mmHg 26%
10:00 +24°C° 0 mm 3 mps 752 mmHg 24%
11:00 +26°C° 0 mm 3 mps 752 mmHg 22%
12:00 +28°C° 0 mm 4 mps 751 mmHg 21%
13:00 +29°C° 0 mm 4 mps 751 mmHg 21%
14:00 +29°C° 0 mm 4 mps 751 mmHg 21%
15:00 +30°C° 0 mm 4 mps 751 mmHg 21%
16:00 +28°C° 0 mm 3 mps 750 mmHg 23%
17:00 +27°C° 0 mm 3 mps 750 mmHg 26%
18:00 +25°C° 0 mm 2 mps 750 mmHg 28%
19:00 +24°C° 0 mm 2 mps 750 mmHg 31%
20:00 +21°C° 0 mm 3 mps 751 mmHg 34%
21:00 +19°C° 0 mm 3 mps 751 mmHg 36%
22:00 +19°C° 0 mm 3 mps 751 mmHg 38%
23:00 +18°C° 0 mm 3 mps 751 mmHg 39%

Day after tomorrow, 25 September, Friday

Time Temperature Precipitation Wind Pressure Humidity
00:00 +17°C° 0 mm 3 mps 751 mmHg 40%
01:00 +17°C° 0 mm 2 mps 751 mmHg 42%
02:00 +16°C° 0 mm 2 mps 751 mmHg 44%
03:00 +16°C° 0 mm 2 mps 751 mmHg 45%
04:00 +15°C° 0 mm 2 mps 751 mmHg 48%
05:00 +15°C° 0 mm 2 mps 751 mmHg 50%
06:00 +14°C° 0 mm 2 mps 751 mmHg 53%
07:00 +17°C° 0 mm 3 mps 751 mmHg 48%
08:00 +19°C° 0 mm 4 mps 751 mmHg 43%
09:00 +21°C° 0 mm 4 mps 751 mmHg 38%
10:00 +23°C° 0 mm 5 mps 751 mmHg 35%
11:00 +26°C° 0 mm 5 mps 750 mmHg 31%
12:00 +28°C° 0 mm 5 mps 750 mmHg 28%
13:00 +28°C° 0 mm 5 mps 750 mmHg 27%
14:00 +29°C° 0 mm 5 mps 750 mmHg 27%
15:00 +29°C° 0 mm 5 mps 749 mmHg 26%
16:00 +28°C° 0 mm 4 mps 749 mmHg 28%
17:00 +27°C° 0 mm 4 mps 749 mmHg 31%
18:00 +25°C° 0 mm 3 mps 748 mmHg 34%
19:00 +24°C° 0 mm 3 mps 748 mmHg 36%
20:00 +21°C° 0 mm 4 mps 749 mmHg 37%
21:00 +20°C° 0 mm 4 mps 749 mmHg 39%
22:00 +19°C° 0 mm 4 mps 749 mmHg 40%
23:00 +19°C° 0 mm 4 mps 748 mmHg 42%

26 September, Saturday

Time Temperature Precipitation Wind Pressure Humidity
00:00 +18°C° 0 mm 4 mps 748 mmHg 43%
01:00 +17°C° 0 mm 4 mps 748 mmHg 45%
02:00 +17°C° 0 mm 4 mps 748 mmHg 48%
03:00 +15°C° 0 mm 4 mps 748 mmHg 50%
04:00 +15°C° 0 mm 4 mps 748 mmHg 51%
05:00 +14°C° 0 mm 4 mps 748 mmHg 51%
06:00 +14°C° 0 mm 4 mps 748 mmHg 51%
07:00 +16°C° 0 mm 5 mps 748 mmHg 46%
08:00 +19°C° 0 mm 5 mps 748 mmHg 40%
09:00 +21°C° 0 mm 6 mps 748 mmHg 35%
10:00 +23°C° 0 mm 6 mps 748 mmHg 31%
11:00 +26°C° 0 mm 6 mps 748 mmHg 27%
12:00 +29°C° 0 mm 6 mps 748 mmHg 23%
13:00 +29°C° 0 mm 7 mps 747 mmHg 20%
14:00 +30°C° 0 mm 7 mps 747 mmHg 17%
15:00 +32°C° 0 mm 7 mps 747 mmHg 14%
16:00 +29°C° 0 mm 6 mps 747 mmHg 16%
17:00 +28°C° 0 mm 5 mps 747 mmHg 18%
18:00 +27°C° 0 mm 5 mps 747 mmHg 20%
19:00 +25°C° 0 mm 5 mps 747 mmHg 26%
20:00 +23°C° 0 mm 6 mps 748 mmHg 32%
21:00 +21°C° 0 mm 7 mps 748 mmHg 38%
22:00 +20°C° 0 mm 6 mps 748 mmHg 42%
23:00 +20°C° 0 mm 6 mps 748 mmHg 47%

27 September, Sunday

Time Temperature Precipitation Wind Pressure Humidity
00:00 +19°C° 0 mm 6 mps 748 mmHg 51%
01:00 +17°C° 0 mm 6 mps 748 mmHg 51%
02:00 +17°C° 0 mm 6 mps 748 mmHg 51%
03:00 +16°C° 0 mm 7 mps 748 mmHg 50%
04:00 +16°C° 0 mm 7 mps 748 mmHg 50%
05:00 +15°C° 0 mm 7 mps 748 mmHg 50%
06:00 +15°C° 0 mm 7 mps 748 mmHg 49%
07:00 +16°C° 0 mm 8 mps 748 mmHg 47%
08:00 +17°C° 0 mm 8 mps 748 mmHg 44%
09:00 +18°C° 0 mm 9 mps 748 mmHg 41%
10:00 +21°C° 0 mm 9 mps 748 mmHg 37%
11:00 +23°C° 0 mm 10 mps 748 mmHg 34%
12:00 +26°C° 0 mm 10 mps 747 mmHg 30%
13:00 +26°C° 0 mm 10 mps 747 mmHg 29%
14:00 +27°C° 0 mm 10 mps 747 mmHg 28%
15:00 +28°C° 0 mm 10 mps 746 mmHg 27%
16:00 +28°C° 0 mm 8 mps 746 mmHg 29%
17:00 +27°C° 0 mm 7 mps 746 mmHg 31%
18:00 +26°C° 0 mm 6 mps 746 mmHg 33%
19:00 +24°C° 0.1 mm 7 mps 746 mmHg 35%
20:00 +23°C° 0.1 mm 7 mps 747 mmHg 37%
21:00 +23°C° 0.1 mm 7 mps 747 mmHg 40%
22:00 +22°C° 0.5 mm 7 mps 747 mmHg 43%
23:00 +21°C° 0.5 mm 6 mps 747 mmHg 47%

28 September, Monday

Time Temperature Precipitation Wind Pressure Humidity
00:00 +20°C° 0.5 mm 5 mps 748 mmHg 51%
01:00 +19°C° 0.6 mm 5 mps 748 mmHg 59%
02:00 +17°C° 0.6 mm 5 mps 748 mmHg 67%
03:00 +16°C° 0.6 mm 5 mps 748 mmHg 75%
04:00 +16°C° 0.1 mm 5 mps 748 mmHg 76%
05:00 +15°C° 0.1 mm 4 mps 749 mmHg 77%
06:00 +15°C° 0.1 mm 4 mps 749 mmHg 79%
07:00 +17°C° 0.1 mm 4 mps 750 mmHg 76%
08:00 +18°C° 0.1 mm 3 mps 750 mmHg 73%
09:00 +19°C° 0.1 mm 3 mps 750 mmHg 70%
10:00 +21°C° 0 mm 3 mps 751 mmHg 59%
11:00 +22°C° 0 mm 4 mps 751 mmHg 48%
12:00 +25°C° 0 mm 4 mps 751 mmHg 37%
13:00 +25°C° 0 mm 4 mps 752 mmHg 34%
14:00 +26°C° 0 mm 3 mps 752 mmHg 30%
15:00 +26°C° 0 mm 3 mps 752 mmHg 26%
16:00 +25°C° 0 mm 2 mps 752 mmHg 29%
17:00 +23°C° 0 mm 1 mps 752 mmHg 32%
18:00 +20°C° 0 mm 0 mps 752 mmHg 34%
19:00 +21°C° 0 mm 1 mps 752 mmHg 36%
20:00 +20°C° 0 mm 1 mps 752 mmHg 37%
21:00 +20°C° 0 mm 1 mps 752 mmHg 38%
22:00 +18°C° 0 mm 2 mps 752 mmHg 40%
23:00 +18°C° 0 mm 2 mps 751 mmHg 41%
Show more